LOCATION_NAME,SAMPLE COLLECTION TIME,DOSE EQUIVALENT RATE (nSv/h),GAMMA COUNT RATE R02 (CPM),GAMMA COUNT RATE R03 (CPM),GAMMA COUNT RATE R04 (CPM),GAMMA COUNT RATE R05 (CPM),GAMMA COUNT RATE R06 (CPM),GAMMA COUNT RATE R07 (CPM),GAMMA COUNT RATE R08 (CPM),GAMMA COUNT RATE R09 (CPM),STATUS
AL: MONTGOMERY,01/01/2021 00:17:00,50.00,1775.00,925.00,276.00,132.00,95.00,118.00,74.00,86.00,APPROVED
AL: MONTGOMERY,01/01/2021 01:18:00,47.00,1768.00,934.00,278.00,133.00,96.00,118.00,74.00,87.00,APPROVED
AL: MONTGOMERY,01/01/2021 02:20:00,47.00,1764.00,932.00,280.00,130.00,95.00,117.00,75.00,89.00,APPROVED
AL: MONTGOMERY,01/01/2021 03:20:00,47.00,1781.00,940.00,281.00,134.00,99.00,119.00,74.00,87.00,APPROVED
AL: MONTGOMERY,01/01/2021 04:20:00,49.00,1772.00,941.00,287.00,133.00,97.00,119.00,74.00,90.00,APPROVED
AL: MONTGOMERY,01/01/2021 05:22:00,50.00,1754.00,923.00,276.00,131.00,98.00,118.00,74.00,90.00,APPROVED
AL: MONTGOMERY,01/01/2021 06:22:00,47.00,1727.00,897.00,268.00,128.00,95.00,114.00,71.00,88.00,APPROVED
AL: MONTGOMERY,01/01/2021 07:24:00,46.00,1687.00,864.00,257.00,122.00,91.00,109.00,71.00,89.00,APPROVED
AL: MONTGOMERY,01/01/2021 08:25:00,47.00,1681.00,862.00,254.00,119.00,90.00,102.00,69.00,90.00,APPROVED
AL: MONTGOMERY,01/01/2021 09:26:00,47.00,1700.00,878.00,260.00,123.00,93.00,107.00,73.00,87.00,APPROVED
AL: MONTGOMERY,01/01/2021 10:27:00,47.00,1672.00,851.00,250.00,121.00,92.00,105.00,68.00,87.00,APPROVED
AL: MONTGOMERY,01/01/2021 11:29:00,46.00,1660.00,840.00,248.00,116.00,90.00,103.00,67.00,88.00,APPROVED
AL: MONTGOMERY,01/01/2021 12:29:00,47.00,1684.00,865.00,256.00,119.00,93.00,107.00,68.00,87.00,APPROVED
AL: MONTGOMERY,01/01/2021 13:29:00,49.00,1709.00,875.00,259.00,123.00,95.00,106.00,69.00,88.00,APPROVED
AL: MONTGOMERY,01/01/2021 14:30:00,53.00,1854.00,998.00,293.00,139.00,101.00,123.00,76.00,89.00,APPROVED
AL: MONTGOMERY,01/01/2021 15:30:00,51.00,1787.00,968.00,288.00,135.00,99.00,120.00,75.00,87.00,APPROVED
AL: MONTGOMERY,01/01/2021 16:31:00,50.00,1747.00,916.00,274.00,128.00,97.00,115.00,73.00,90.00,APPROVED
AL: MONTGOMERY,01/01/2021 17:32:00,45.00,1692.00,875.00,259.00,126.00,92.00,109.00,69.00,88.00,APPROVED
AL: MONTGOMERY,01/01/2021 18:33:00,45.00,1691.00,870.00,255.00,122.00,92.00,105.00,70.00,87.00,APPROVED
AL: MONTGOMERY,01/01/2021 19:33:00,47.00,1704.00,895.00,264.00,130.00,95.00,106.00,75.00,87.00,APPROVED
AL: MONTGOMERY,01/01/2021 20:34:00,47.00,1708.00,890.00,263.00,127.00,95.00,109.00,72.00,87.00,APPROVED
AL: MONTGOMERY,01/01/2021 21:34:00,50.00,1705.00,882.00,257.00,126.00,96.00,105.00,71.00,90.00,APPROVED
AL: MONTGOMERY,01/01/2021 22:34:00,46.00,1703.00,883.00,261.00,124.00,94.00,108.00,72.00,89.00,APPROVED
AL: MONTGOMERY,01/01/2021 23:35:00,48.00,1709.00,876.00,258.00,125.00,92.00,106.00,71.00,89.00,APPROVED
AL: MONTGOMERY,01/02/2021 00:36:00,47.00,1708.00,877.00,258.00,127.00,92.00,108.00,69.00,86.00,APPROVED
AL: MONTGOMERY,01/02/2021 01:37:00,47.00,1717.00,868.00,261.00,123.00,92.00,108.00,70.00,87.00,APPROVED
AL: MONTGOMERY,01/02/2021 02:37:00,47.00,1704.00,866.00,259.00,124.00,91.00,108.00,70.00,89.00,APPROVED
AL: MONTGOMERY,01/02/2021 03:38:00,46.00,1711.00,865.00,261.00,121.00,89.00,111.00,69.00,87.00,APPROVED
AL: MONTGOMERY,01/02/2021 04:39:00,46.00,1707.00,872.00,261.00,121.00,91.00,112.00,71.00,87.00,APPROVED
AL: MONTGOMERY,01/02/2021 05:39:00,45.00,1714.00,879.00,262.00,125.00,90.00,113.00,71.00,89.00,APPROVED
AL: MONTGOMERY,01/02/2021 06:39:00,47.00,1708.00,885.00,264.00,123.00,90.00,113.00,69.00,88.00,APPROVED
AL: MONTGOMERY,01/02/2021 07:39:00,47.00,1712.00,885.00,269.00,124.00,89.00,111.00,71.00,89.00,APPROVED
AL: MONTGOMERY,01/02/2021 08:39:00,47.00,1727.00,895.00,273.00,123.00,90.00,116.00,72.00,86.00,APPROVED
AL: MONTGOMERY,01/02/2021 09:39:00,48.00,1725.00,903.00,265.00,125.00,93.00,116.00,71.00,87.00,APPROVED
AL: MONTGOMERY,01/02/2021 10:39:00,47.00,1737.00,899.00,270.00,127.00,92.00,116.00,73.00,88.00,APPROVED
AL: MONTGOMERY,01/02/2021 11:40:00,47.00,1739.00,894.00,268.00,123.00,93.00,117.00,70.00,87.00,APPROVED
AL: MONTGOMERY,01/02/2021 12:40:00,49.00,1728.00,899.00,267.00,124.00,89.00,116.00,70.00,88.00,APPROVED
AL: MONTGOMERY,01/02/2021 13:42:00,48.00,1738.00,901.00,264.00,123.00,91.00,118.00,72.00,90.00,APPROVED
AL: MONTGOMERY,01/02/2021 14:43:00,47.00,1750.00,909.00,275.00,125.00,92.00,116.00,69.00,88.00,APPROVED
AL: MONTGOMERY,01/02/2021 15:45:00,46.00,1754.00,910.00,270.00,126.00,91.00,119.00,73.00,91.00,APPROVED
AL: MONTGOMERY,01/02/2021 16:45:00,48.00,1770.00,906.00,267.00,128.00,93.00,118.00,72.00,88.00,APPROVED
AL: MONTGOMERY,01/02/2021 17:45:00,49.00,1747.00,906.00,276.00,126.00,92.00,118.00,71.00,88.00,APPROVED
AL: MONTGOMERY,01/02/2021 18:45:00,49.00,1748.00,904.00,269.00,124.00,92.00,120.00,71.00,89.00,APPROVED
AL: MONTGOMERY,01/02/2021 19:46:00,49.00,1724.00,892.00,267.00,124.00,90.00,116.00,70.00,90.00,APPROVED
AL: MONTGOMERY,01/02/2021 20:48:00,46.00,1737.00,884.00,264.00,123.00,92.00,111.00,71.00,88.00,APPROVED
AL: MONTGOMERY,01/02/2021 21:49:00,47.00,1739.00,880.00,263.00,121.00,89.00,113.00,70.00,87.00,APPROVED
AL: MONTGOMERY,01/02/2021 22:50:00,47.00,1732.00,887.00,265.00,122.00,91.00,112.00,68.00,87.00,APPROVED
AL: MONTGOMERY,01/02/2021 23:50:00,47.00,1724.00,886.00,260.00,122.00,90.00,115.00,70.00,88.00,APPROVED
AL: MONTGOMERY,01/03/2021 00:50:00,48.00,1730.00,877.00,262.00,122.00,89.00,113.00,69.00,89.00,APPROVED
AL: MONTGOMERY,01/03/2021 01:51:00,46.00,1729.00,883.00,263.00,124.00,91.00,115.00,70.00,88.00,APPROVED
AL: MONTGOMERY,01/03/2021 02:52:00,51.00,1739.00,886.00,265.00,123.00,92.00,116.00,70.00,90.00,APPROVED
AL: MONTGOMERY,01/03/2021 03:53:00,48.00,1747.00,893.00,267.00,123.00,91.00,116.00,68.00,89.00,APPROVED
AL: MONTGOMERY,01/03/2021 04:55:00,47.00,1743.00,905.00,271.00,123.00,93.00,116.00,69.00,88.00,APPROVED
AL: MONTGOMERY,01/03/2021 05:57:00,49.00,1740.00,907.00,267.00,126.00,92.00,120.00,70.00,87.00,APPROVED
AL: MONTGOMERY,01/03/2021 06:58:00,49.00,1741.00,900.00,271.00,125.00,93.00,118.00,70.00,89.00,APPROVED
AL: MONTGOMERY,01/03/2021 08:00:00,47.00,1739.00,907.00,269.00,129.00,93.00,121.00,70.00,87.00,APPROVED
AL: MONTGOMERY,01/03/2021 09:02:00,49.00,1736.00,901.00,273.00,127.00,91.00,119.00,70.00,88.00,APPROVED
AL: MONTGOMERY,01/03/2021 10:03:00,46.00,1744.00,906.00,272.00,126.00,93.00,119.00,71.00,87.00,APPROVED
AL: MONTGOMERY,01/03/2021 11:05:00,49.00,1746.00,912.00,270.00,128.00,93.00,123.00,73.00,90.00,APPROVED
AL: MONTGOMERY,01/03/2021 12:07:00,48.00,1752.00,910.00,271.00,128.00,93.00,122.00,70.00,88.00,APPROVED
AL: MONTGOMERY,01/03/2021 13:08:00,46.00,1753.00,893.00,272.00,127.00,94.00,121.00,70.00,89.00,APPROVED
AL: MONTGOMERY,01/03/2021 14:10:00,47.00,1740.00,915.00,270.00,126.00,95.00,117.00,73.00,88.00,APPROVED
AL: MONTGOMERY,01/03/2021 15:12:00,48.00,1747.00,910.00,270.00,128.00,93.00,123.00,71.00,89.00,APPROVED
AL: MONTGOMERY,01/03/2021 16:13:00,46.00,1738.00,905.00,269.00,128.00,91.00,115.00,70.00,87.00,APPROVED
AL: MONTGOMERY,01/03/2021 17:15:00,47.00,1722.00,895.00,267.00,119.00,93.00,116.00,70.00,90.00,APPROVED
AL: MONTGOMERY,01/03/2021 18:17:00,48.00,1714.00,874.00,265.00,122.00,90.00,114.00,69.00,89.00,APPROVED
AL: MONTGOMERY,01/03/2021 19:18:00,47.00,1707.00,868.00,258.00,123.00,87.00,115.00,69.00,89.00,APPROVED
AL: MONTGOMERY,01/03/2021 20:19:00,48.00,1717.00,863.00,259.00,120.00,88.00,115.00,71.00,87.00,APPROVED
AL: MONTGOMERY,01/03/2021 21:19:00,48.00,1696.00,857.00,257.00,119.00,88.00,113.00,70.00,90.00,APPROVED
AL: MONTGOMERY,01/03/2021 22:19:00,46.00,1690.00,857.00,257.00,117.00,87.00,111.00,68.00,89.00,APPROVED
AL: MONTGOMERY,01/03/2021 23:19:00,49.00,1690.00,857.00,255.00,118.00,88.00,115.00,67.00,88.00,APPROVED
AL: MONTGOMERY,01/04/2021 00:20:00,46.00,1691.00,852.00,252.00,118.00,86.00,113.00,68.00,89.00,APPROVED
AL: MONTGOMERY,01/04/2021 01:22:00,48.00,1700.00,857.00,258.00,118.00,87.00,112.00,67.00,87.00,APPROVED
AL: MONTGOMERY,01/04/2021 02:23:00,47.00,1698.00,866.00,263.00,118.00,87.00,115.00,68.00,89.00,APPROVED
AL: MONTGOMERY,01/04/2021 03:25:00,48.00,1715.00,881.00,264.00,120.00,88.00,117.00,68.00,87.00,APPROVED
AL: MONTGOMERY,01/04/2021 04:27:00,46.00,1720.00,883.00,266.00,122.00,90.00,118.00,69.00,89.00,APPROVED
AL: MONTGOMERY,01/04/2021 05:28:00,48.00,1731.00,898.00,264.00,124.00,92.00,120.00,70.00,89.00,APPROVED
AL: MONTGOMERY,01/04/2021 06:29:00,49.00,1744.00,915.00,271.00,126.00,92.00,119.00,72.00,87.00,APPROVED
AL: MONTGOMERY,01/04/2021 07:29:00,48.00,1753.00,917.00,275.00,124.00,92.00,121.00,72.00,90.00,APPROVED
AL: MONTGOMERY,01/04/2021 08:30:00,49.00,1773.00,926.00,280.00,128.00,94.00,121.00,72.00,88.00,APPROVED
AL: MONTGOMERY,01/04/2021 09:30:00,50.00,1773.00,950.00,281.00,131.00,94.00,124.00,72.00,89.00,APPROVED
AL: MONTGOMERY,01/04/2021 10:30:00,48.00,1785.00,954.00,285.00,134.00,93.00,127.00,72.00,91.00,APPROVED
AL: MONTGOMERY,01/04/2021 11:30:00,51.00,1783.00,950.00,286.00,132.00,96.00,125.00,74.00,89.00,APPROVED
AL: MONTGOMERY,01/04/2021 12:30:00,49.00,1778.00,954.00,290.00,132.00,95.00,129.00,71.00,92.00,APPROVED
AL: MONTGOMERY,01/04/2021 13:31:00,47.00,1793.00,958.00,287.00,133.00,96.00,125.00,74.00,89.00,APPROVED
AL: MONTGOMERY,01/04/2021 14:31:00,48.00,1787.00,963.00,291.00,134.00,96.00,129.00,73.00,89.00,APPROVED
AL: MONTGOMERY,01/04/2021 15:31:00,49.00,1791.00,956.00,287.00,134.00,95.00,128.00,74.00,88.00,APPROVED
AL: MONTGOMERY,01/04/2021 16:36:00,49.00,1718.00,882.00,258.00,118.00,89.00,114.00,70.00,86.00,APPROVED
AL: MONTGOMERY,01/04/2021 17:36:00,47.00,1710.00,873.00,259.00,120.00,88.00,116.00,68.00,87.00,APPROVED
AL: MONTGOMERY,01/04/2021 18:36:00,48.00,1723.00,867.00,262.00,122.00,88.00,115.00,69.00,85.00,APPROVED
AL: MONTGOMERY,01/04/2021 19:36:00,47.00,1714.00,879.00,264.00,120.00,89.00,110.00,69.00,87.00,APPROVED
AL: MONTGOMERY,01/04/2021 20:37:00,49.00,1726.00,877.00,265.00,120.00,89.00,112.00,69.00,88.00,APPROVED
AL: MONTGOMERY,01/04/2021 21:39:00,46.00,1720.00,870.00,261.00,122.00,91.00,112.00,70.00,87.00,APPROVED
AL: MONTGOMERY,01/04/2021 22:39:00,50.00,1720.00,874.00,257.00,120.00,88.00,113.00,72.00,90.00,APPROVED
AL: MONTGOMERY,01/04/2021 23:40:00,50.00,1714.00,874.00,258.00,122.00,90.00,116.00,67.00,88.00,APPROVED
AL: MONTGOMERY,01/05/2021 00:40:00,49.00,1720.00,880.00,262.00,121.00,89.00,115.00,69.00,89.00,APPROVED
AL: MONTGOMERY,01/05/2021 01:42:00,48.00,1729.00,889.00,263.00,124.00,89.00,115.00,70.00,89.00,APPROVED
AL: MONTGOMERY,01/05/2021 02:44:00,49.00,1733.00,884.00,266.00,123.00,89.00,119.00,70.00,88.00,APPROVED
AL: MONTGOMERY,01/05/2021 03:45:00,49.00,1735.00,891.00,263.00,122.00,92.00,118.00,70.00,87.00,APPROVED
AL: MONTGOMERY,01/05/2021 04:46:00,49.00,1727.00,888.00,265.00,119.00,91.00,115.00,69.00,87.00,APPROVED
AL: MONTGOMERY,01/05/2021 05:48:00,49.00,1723.00,880.00,262.00,122.00,88.00,116.00,68.00,88.00,APPROVED
AL: MONTGOMERY,01/05/2021 06:49:00,50.00,1728.00,879.00,265.00,121.00,93.00,114.00,71.00,90.00,APPROVED
AL: MONTGOMERY,01/05/2021 07:50:00,50.00,1739.00,881.00,265.00,120.00,92.00,113.00,71.00,88.00,APPROVED
AL: MONTGOMERY,01/05/2021 08:52:00,46.00,1746.00,895.00,268.00,121.00,90.00,115.00,68.00,89.00,APPROVED
AL: MONTGOMERY,01/05/2021 09:54:00,48.00,1756.00,903.00,270.00,125.00,91.00,119.00,70.00,89.00,APPROVED
AL: MONTGOMERY,01/05/2021 10:55:00,48.00,1762.00,911.00,268.00,126.00,92.00,121.00,71.00,87.00,APPROVED
AL: MONTGOMERY,01/05/2021 11:57:00,49.00,1763.00,904.00,270.00,127.00,91.00,120.00,70.00,88.00,APPROVED
AL: MONTGOMERY,01/05/2021 12:59:00,47.00,1768.00,914.00,276.00,126.00,93.00,121.00,72.00,89.00,APPROVED
AL: MONTGOMERY,01/05/2021 14:00:00,46.00,1784.00,931.00,276.00,130.00,96.00,120.00,71.00,86.00,APPROVED
AL: MONTGOMERY,01/05/2021 15:02:00,49.00,1789.00,944.00,281.00,129.00,95.00,122.00,73.00,88.00,APPROVED
AL: MONTGOMERY,01/05/2021 16:04:00,49.00,1782.00,952.00,286.00,132.00,98.00,123.00,75.00,89.00,APPROVED
AL: MONTGOMERY,01/05/2021 17:05:00,48.00,1772.00,923.00,283.00,128.00,93.00,125.00,73.00,89.00,APPROVED
AL: MONTGOMERY,01/05/2021 18:06:00,47.00,1771.00,923.00,275.00,126.00,92.00,120.00,73.00,89.00,APPROVED
AL: MONTGOMERY,01/05/2021 19:06:00,49.00,1771.00,920.00,274.00,128.00,93.00,120.00,70.00,88.00,APPROVED
AL: MONTGOMERY,01/05/2021 20:07:00,47.00,1747.00,904.00,272.00,127.00,91.00,116.00,70.00,90.00,APPROVED
AL: MONTGOMERY,01/05/2021 21:08:00,49.00,1752.00,899.00,272.00,126.00,91.00,116.00,72.00,88.00,APPROVED
AL: MONTGOMERY,01/05/2021 22:10:00,50.00,1776.00,914.00,275.00,128.00,95.00,116.00,72.00,89.00,APPROVED
AL: MONTGOMERY,01/05/2021 23:11:00,48.00,1800.00,947.00,279.00,128.00,93.00,121.00,70.00,89.00,APPROVED
AL: MONTGOMERY,01/06/2021 00:11:00,49.00,1789.00,928.00,276.00,128.00,93.00,122.00,70.00,90.00,APPROVED
AL: MONTGOMERY,01/06/2021 01:12:00,50.00,1780.00,926.00,275.00,127.00,92.00,123.00,72.00,90.00,APPROVED
AL: MONTGOMERY,01/06/2021 02:14:00,47.00,1783.00,920.00,274.00,129.00,94.00,121.00,71.00,87.00,APPROVED
AL: MONTGOMERY,01/06/2021 03:16:00,51.00,1787.00,932.00,279.00,131.00,92.00,122.00,70.00,89.00,APPROVED
AL: MONTGOMERY,01/06/2021 04:17:00,48.00,1802.00,943.00,285.00,131.00,94.00,123.00,72.00,90.00,APPROVED
AL: MONTGOMERY,01/06/2021 05:19:00,50.00,1817.00,960.00,287.00,134.00,96.00,124.00,73.00,89.00,APPROVED
AL: MONTGOMERY,01/06/2021 06:20:00,49.00,1816.00,974.00,294.00,136.00,97.00,131.00,74.00,87.00,APPROVED
AL: MONTGOMERY,01/06/2021 07:22:00,50.00,1827.00,972.00,297.00,140.00,99.00,130.00,74.00,91.00,APPROVED
AL: MONTGOMERY,01/06/2021 08:23:00,51.00,1827.00,994.00,300.00,138.00,101.00,126.00,77.00,89.00,APPROVED
AL: MONTGOMERY,01/06/2021 09:25:00,49.00,1835.00,988.00,302.00,139.00,99.00,130.00,75.00,90.00,APPROVED
AL: MONTGOMERY,01/06/2021 10:26:00,50.00,1836.00,996.00,304.00,141.00,101.00,133.00,78.00,91.00,APPROVED
AL: MONTGOMERY,01/06/2021 11:27:00,49.00,1840.00,1011.00,306.00,140.00,100.00,133.00,77.00,91.00,APPROVED
AL: MONTGOMERY,01/06/2021 12:28:00,49.00,1853.00,1009.00,309.00,143.00,102.00,135.00,77.00,89.00,APPROVED
AL: MONTGOMERY,01/06/2021 13:28:00,49.00,1840.00,1003.00,305.00,141.00,98.00,132.00,77.00,90.00,APPROVED
AL: MONTGOMERY,01/06/2021 14:29:00,50.00,1830.00,1003.00,303.00,139.00,101.00,135.00,77.00,89.00,APPROVED
AL: MONTGOMERY,01/06/2021 15:31:00,52.00,1819.00,983.00,300.00,140.00,97.00,131.00,76.00,89.00,APPROVED
AL: MONTGOMERY,01/06/2021 16:32:00,49.00,1802.00,972.00,291.00,137.00,96.00,130.00,77.00,89.00,APPROVED
AL: MONTGOMERY,01/06/2021 17:34:00,50.00,1771.00,948.00,287.00,134.00,96.00,125.00,73.00,89.00,APPROVED
AL: MONTGOMERY,01/06/2021 18:34:00,49.00,1778.00,933.00,281.00,131.00,95.00,122.00,73.00,88.00,APPROVED
AL: MONTGOMERY,01/06/2021 19:35:00,47.00,1761.00,924.00,279.00,128.00,92.00,121.00,74.00,89.00,APPROVED
AL: MONTGOMERY,01/06/2021 20:35:00,49.00,1745.00,912.00,274.00,128.00,93.00,120.00,71.00,88.00,APPROVED
AL: MONTGOMERY,01/06/2021 21:35:00,49.00,1752.00,913.00,269.00,128.00,91.00,118.00,72.00,92.00,APPROVED
AL: MONTGOMERY,01/06/2021 22:35:00,48.00,1740.00,900.00,271.00,124.00,91.00,119.00,71.00,89.00,APPROVED
AL: MONTGOMERY,01/06/2021 23:35:00,48.00,1751.00,895.00,271.00,124.00,90.00,118.00,70.00,88.00,APPROVED
AL: MONTGOMERY,01/07/2021 00:36:00,48.00,1741.00,918.00,272.00,124.00,93.00,117.00,72.00,90.00,APPROVED
AL: MONTGOMERY,01/07/2021 01:38:00,50.00,1760.00,924.00,277.00,127.00,92.00,121.00,72.00,90.00,APPROVED
AL: MONTGOMERY,01/07/2021 02:40:00,49.00,1767.00,929.00,279.00,127.00,93.00,124.00,72.00,87.00,APPROVED
AL: MONTGOMERY,01/07/2021 03:41:00,50.00,1774.00,936.00,284.00,130.00,92.00,120.00,72.00,90.00,APPROVED
AL: MONTGOMERY,01/07/2021 04:43:00,48.00,1769.00,932.00,279.00,131.00,93.00,121.00,72.00,89.00,APPROVED
AL: MONTGOMERY,01/07/2021 05:45:00,48.00,1768.00,927.00,280.00,128.00,93.00,123.00,71.00,88.00,APPROVED
AL: MONTGOMERY,01/07/2021 06:46:00,50.00,1776.00,927.00,278.00,129.00,94.00,123.00,73.00,91.00,APPROVED
AL: MONTGOMERY,01/07/2021 07:48:00,48.00,1788.00,933.00,285.00,130.00,93.00,122.00,73.00,89.00,APPROVED
AL: MONTGOMERY,01/07/2021 08:50:00,51.00,1798.00,936.00,281.00,128.00,95.00,125.00,73.00,89.00,APPROVED
AL: MONTGOMERY,01/07/2021 09:51:00,49.00,1786.00,935.00,285.00,130.00,94.00,123.00,72.00,91.00,APPROVED
AL: MONTGOMERY,01/07/2021 10:52:00,49.00,1785.00,936.00,283.00,130.00,93.00,122.00,71.00,88.00,APPROVED
AL: MONTGOMERY,01/07/2021 11:54:00,50.00,1788.00,936.00,282.00,132.00,94.00,122.00,71.00,91.00,APPROVED
AL: MONTGOMERY,01/07/2021 12:56:00,49.00,1795.00,935.00,283.00,130.00,93.00,123.00,72.00,90.00,APPROVED
AL: MONTGOMERY,01/07/2021 14:31:00,49.00,1758.00,884.00,262.00,121.00,91.00,115.00,69.00,88.00,APPROVED
AL: MONTGOMERY,01/07/2021 15:33:00,49.00,1808.00,936.00,279.00,129.00,94.00,123.00,72.00,89.00,APPROVED
AL: MONTGOMERY,01/07/2021 16:35:00,55.00,1955.00,1060.00,325.00,150.00,106.00,137.00,79.00,90.00,APPROVED
AL: MONTGOMERY,01/07/2021 17:36:00,60.00,2091.00,1177.00,365.00,163.00,112.00,151.00,86.00,91.00,APPROVED
AL: MONTGOMERY,01/07/2021 18:38:00,60.00,2020.00,1123.00,352.00,160.00,108.00,150.00,81.00,90.00,APPROVED
AL: MONTGOMERY,01/07/2021 19:40:00,53.00,1828.00,969.00,297.00,137.00,96.00,130.00,74.00,91.00,APPROVED
AL: MONTGOMERY,01/07/2021 20:41:00,49.00,1751.00,909.00,274.00,126.00,92.00,121.00,71.00,88.00,APPROVED
AL: MONTGOMERY,01/07/2021 21:43:00,49.00,1739.00,901.00,271.00,123.00,91.00,118.00,72.00,90.00,APPROVED
AL: MONTGOMERY,01/07/2021 22:45:00,49.00,1742.00,890.00,270.00,122.00,93.00,119.00,69.00,84.00,APPROVED
AL: MONTGOMERY,01/07/2021 23:46:00,50.00,1754.00,898.00,271.00,123.00,93.00,119.00,71.00,87.00,APPROVED
AL: MONTGOMERY,01/08/2021 00:48:00,62.00,2159.00,1249.00,378.00,171.00,120.00,158.00,86.00,91.00,APPROVED
AL: MONTGOMERY,01/08/2021 01:50:00,69.00,2346.00,1403.00,447.00,199.00,131.00,183.00,97.00,93.00,APPROVED
AL: MONTGOMERY,01/08/2021 02:51:00,63.00,2192.00,1293.00,414.00,186.00,127.00,171.00,92.00,95.00,APPROVED
AL: MONTGOMERY,01/08/2021 04:54:00,54.00,1860.00,999.00,308.00,142.00,100.00,133.00,77.00,88.00,APPROVED
AL: MONTGOMERY,01/08/2021 05:55:00,49.00,1812.00,973.00,294.00,138.00,98.00,129.00,74.00,88.00,APPROVED
AL: MONTGOMERY,01/08/2021 06:57:00,51.00,1810.00,957.00,294.00,136.00,97.00,126.00,74.00,90.00,APPROVED
AL: MONTGOMERY,01/08/2021 07:59:00,52.00,1876.00,1030.00,317.00,146.00,103.00,133.00,78.00,91.00,APPROVED
AL: MONTGOMERY,01/08/2021 09:00:00,52.00,1857.00,1001.00,312.00,143.00,102.00,134.00,79.00,91.00,APPROVED
AL: MONTGOMERY,01/08/2021 10:02:00,49.00,1822.00,992.00,304.00,142.00,101.00,133.00,77.00,87.00,APPROVED
AL: MONTGOMERY,01/08/2021 11:04:00,52.00,1817.00,975.00,297.00,140.00,99.00,130.00,76.00,88.00,APPROVED
AL: MONTGOMERY,01/08/2021 12:05:00,54.00,1842.00,987.00,302.00,137.00,98.00,132.00,74.00,91.00,APPROVED
AL: MONTGOMERY,01/08/2021 13:07:00,52.00,1905.00,1038.00,317.00,144.00,102.00,136.00,77.00,91.00,APPROVED
AL: MONTGOMERY,01/08/2021 14:09:00,54.00,1878.00,1021.00,317.00,144.00,103.00,135.00,77.00,90.00,APPROVED
AL: MONTGOMERY,01/08/2021 15:10:00,50.00,1795.00,955.00,294.00,135.00,96.00,129.00,71.00,88.00,APPROVED
AL: MONTGOMERY,01/08/2021 16:12:00,50.00,1813.00,954.00,289.00,135.00,96.00,128.00,73.00,87.00,APPROVED
AL: MONTGOMERY,01/08/2021 17:13:00,49.00,1852.00,977.00,300.00,138.00,99.00,128.00,74.00,89.00,APPROVED
AL: MONTGOMERY,01/08/2021 18:15:00,51.00,1849.00,1001.00,300.00,139.00,101.00,127.00,74.00,87.00,APPROVED
AL: MONTGOMERY,01/08/2021 19:16:00,51.00,1817.00,968.00,295.00,136.00,96.00,128.00,74.00,87.00,APPROVED
AL: MONTGOMERY,01/08/2021 20:18:00,50.00,1801.00,944.00,284.00,130.00,97.00,126.00,73.00,89.00,APPROVED
AL: MONTGOMERY,01/08/2021 21:19:00,49.00,1784.00,934.00,285.00,129.00,94.00,125.00,74.00,89.00,APPROVED
AL: MONTGOMERY,01/08/2021 22:21:00,49.00,1772.00,935.00,282.00,130.00,93.00,122.00,72.00,89.00,APPROVED
AL: MONTGOMERY,01/08/2021 23:23:00,47.00,1765.00,928.00,276.00,129.00,94.00,122.00,73.00,89.00,APPROVED
AL: MONTGOMERY,01/09/2021 00:24:00,46.00,1757.00,924.00,274.00,130.00,96.00,121.00,73.00,89.00,APPROVED
AL: MONTGOMERY,01/09/2021 01:25:00,48.00,1728.00,900.00,274.00,126.00,91.00,119.00,70.00,87.00,APPROVED
AL: MONTGOMERY,01/09/2021 02:26:00,47.00,1739.00,892.00,264.00,125.00,90.00,119.00,69.00,88.00,APPROVED
AL: MONTGOMERY,01/09/2021 03:28:00,46.00,1716.00,887.00,267.00,124.00,92.00,116.00,70.00,86.00,APPROVED
AL: MONTGOMERY,01/09/2021 04:30:00,48.00,1728.00,888.00,263.00,127.00,90.00,120.00,71.00,88.00,APPROVED
AL: MONTGOMERY,01/09/2021 05:31:00,48.00,1732.00,892.00,269.00,124.00,92.00,117.00,70.00,89.00,APPROVED
AL: MONTGOMERY,01/09/2021 06:33:00,47.00,1719.00,877.00,267.00,122.00,92.00,114.00,67.00,87.00,APPROVED
AL: MONTGOMERY,01/09/2021 07:35:00,47.00,1706.00,872.00,263.00,123.00,89.00,115.00,68.00,88.00,APPROVED
AL: MONTGOMERY,01/09/2021 08:36:00,47.00,1714.00,877.00,266.00,122.00,90.00,115.00,69.00,85.00,APPROVED
AL: MONTGOMERY,01/09/2021 09:38:00,47.00,1716.00,878.00,264.00,122.00,92.00,117.00,70.00,88.00,APPROVED
AL: MONTGOMERY,01/09/2021 10:40:00,49.00,1721.00,879.00,265.00,122.00,89.00,114.00,69.00,86.00,APPROVED
AL: MONTGOMERY,01/09/2021 11:41:00,45.00,1715.00,881.00,268.00,121.00,89.00,115.00,70.00,88.00,APPROVED
AL: MONTGOMERY,01/09/2021 12:43:00,47.00,1723.00,884.00,268.00,126.00,91.00,120.00,70.00,89.00,APPROVED
AL: MONTGOMERY,01/09/2021 13:45:00,47.00,1720.00,883.00,269.00,125.00,92.00,117.00,70.00,87.00,APPROVED
AL: MONTGOMERY,01/09/2021 14:46:00,47.00,1720.00,882.00,265.00,123.00,89.00,114.00,71.00,87.00,APPROVED
AL: MONTGOMERY,01/09/2021 15:48:00,47.00,1718.00,878.00,264.00,121.00,90.00,117.00,68.00,87.00,APPROVED
AL: MONTGOMERY,01/09/2021 16:49:00,47.00,1726.00,878.00,267.00,119.00,89.00,118.00,69.00,86.00,APPROVED
AL: MONTGOMERY,01/09/2021 17:50:00,48.00,1723.00,888.00,262.00,126.00,90.00,118.00,67.00,87.00,APPROVED
AL: MONTGOMERY,01/09/2021 18:51:00,46.00,1726.00,888.00,266.00,124.00,92.00,116.00,72.00,87.00,APPROVED
AL: MONTGOMERY,01/09/2021 19:53:00,47.00,1714.00,880.00,265.00,122.00,88.00,119.00,67.00,89.00,APPROVED
AL: MONTGOMERY,01/09/2021 20:54:00,47.00,1725.00,883.00,266.00,123.00,91.00,117.00,71.00,88.00,APPROVED
AL: MONTGOMERY,01/09/2021 21:56:00,49.00,1744.00,893.00,268.00,123.00,89.00,117.00,70.00,86.00,APPROVED
AL: MONTGOMERY,01/09/2021 22:58:00,46.00,1723.00,883.00,266.00,125.00,92.00,116.00,70.00,87.00,APPROVED
AL: MONTGOMERY,01/09/2021 23:59:00,47.00,1719.00,886.00,263.00,123.00,88.00,118.00,70.00,88.00,APPROVED
AL: MONTGOMERY,01/10/2021 01:01:00,46.00,1709.00,877.00,264.00,120.00,88.00,116.00,69.00,85.00,APPROVED
AL: MONTGOMERY,01/10/2021 02:03:00,47.00,1712.00,880.00,264.00,121.00,88.00,114.00,69.00,87.00,APPROVED
AL: MONTGOMERY,01/10/2021 03:04:00,46.00,1728.00,876.00,265.00,119.00,92.00,117.00,69.00,87.00,APPROVED
AL: MONTGOMERY,01/10/2021 04:06:00,47.00,1737.00,889.00,271.00,123.00,89.00,116.00,69.00,87.00,APPROVED
AL: MONTGOMERY,01/10/2021 05:08:00,47.00,1736.00,896.00,264.00,124.00,90.00,120.00,71.00,87.00,APPROVED
AL: MONTGOMERY,01/10/2021 06:10:00,48.00,1741.00,893.00,271.00,125.00,92.00,118.00,70.00,87.00,APPROVED
AL: MONTGOMERY,01/10/2021 08:12:00,48.00,1731.00,890.00,267.00,127.00,91.00,119.00,71.00,86.00,APPROVED
AL: MONTGOMERY,01/10/2021 09:14:00,46.00,1745.00,907.00,272.00,129.00,93.00,119.00,70.00,88.00,APPROVED
AL: MONTGOMERY,01/10/2021 10:14:00,46.00,1733.00,899.00,273.00,124.00,94.00,119.00,71.00,86.00,APPROVED
AL: MONTGOMERY,01/10/2021 11:15:00,48.00,1733.00,902.00,271.00,126.00,92.00,123.00,69.00,88.00,APPROVED
AL: MONTGOMERY,01/10/2021 12:16:00,47.00,1748.00,903.00,269.00,125.00,91.00,121.00,70.00,88.00,APPROVED
AL: MONTGOMERY,01/10/2021 13:17:00,47.00,1743.00,905.00,271.00,126.00,93.00,120.00,69.00,86.00,APPROVED
AL: MONTGOMERY,01/10/2021 14:19:00,46.00,1750.00,907.00,275.00,127.00,92.00,120.00,70.00,89.00,APPROVED
AL: MONTGOMERY,01/10/2021 15:20:00,45.00,1756.00,917.00,277.00,129.00,92.00,123.00,71.00,89.00,APPROVED
AL: MONTGOMERY,01/10/2021 16:20:00,48.00,1757.00,920.00,277.00,127.00,92.00,122.00,70.00,87.00,APPROVED
AL: MONTGOMERY,01/10/2021 17:22:00,47.00,1760.00,918.00,275.00,128.00,93.00,124.00,71.00,88.00,APPROVED